Preston, Minnesota, United States (55965)
Lat: 43.67N, Lon: 92.08W
Wx Zone: MNZ095
Local Info
Past Weather Observations for Sunday, October 19, 2014

NOTE: This archive is for the closest National Weather Service station to Preston. Information may differ from the station used for current weather conditions.

Click here for Long-term Archive

Time Weather Temperature Dewpoint Humidity Pressure Winds Precip Visibility
23:55
Clear
37°F / 3°C 32°F / 0°C 81% 30.12 in
(1020 mb)
S 5.8 mph
(S 9 kph)
- 10SM
23:35
Clear
37°F / 3°C 32°F / 0°C 81% 30.12 in
(1020 mb)
S 4.6 mph
(S 7 kph)
- 10SM
23:15
Clear
37°F / 3°C 32°F / 0°C 81% 30.15 in
(1021 mb)
S 4.6 mph
(S 7 kph)
- 10SM
22:55
Clear
37°F / 3°C 32°F / 0°C 81% 30.15 in
(1021 mb)
S 6.9 mph
(S 11 kph)
- 10SM
22:35
Clear
37°F / 3°C 32°F / 0°C 81% 30.15 in
(1021 mb)
S 6.9 mph
(S 11 kph)
- 10SM
22:15
Clear
37°F / 3°C 32°F / 0°C 81% 30.15 in
(1021 mb)
SSE 4.6 mph
(SSE 7 kph)
- 10SM
21:55
Clear
37°F / 3°C 32°F / 0°C 81% 30.15 in
(1021 mb)
S 3.5 mph
(S 6 kph)
- 10SM
21:35
Clear
39°F / 4°C 34°F / 1°C 81% 30.18 in
(1022 mb)
SSE 4.6 mph
(SSE 7 kph)
- 10SM
21:15
Clear
39°F / 4°C 32°F / 0°C 75% 30.18 in
(1022 mb)
SSE 5.8 mph
(SSE 9 kph)
- 10SM
20:55
Clear
41°F / 5°C 32°F / 0°C 70% 30.18 in
(1022 mb)
Calm - 10SM
20:36
Clear
43°F / 6°C 32°F / 0°C 66% 30.18 in
(1022 mb)
Calm - 10SM
20:15
Clear
41°F / 5°C 34°F / 1°C 76% 30.18 in
(1022 mb)
Calm - 10SM
19:56
Clear
43°F / 6°C 32°F / 0°C 66% 30.18 in
(1022 mb)
Calm - 10SM
19:35
Clear
43°F / 6°C 32°F / 0°C 66% 30.18 in
(1022 mb)
Calm - 10SM
19:15
Clear
41°F / 5°C 32°F / 0°C 70% 30.18 in
(1022 mb)
Calm - 10SM
18:56
Clear
46°F / 8°C 32°F / 0°C 57% 30.18 in
(1022 mb)
Calm - 10SM
18:35
Clear
46°F / 8°C 32°F / 0°C 57% 30.18 in
(1022 mb)
Calm - 10SM
18:15
Clear
46°F / 8°C 32°F / 0°C 57% 30.18 in
(1022 mb)
Calm - 10SM
17:56
Clear
48°F / 9°C 32°F / 0°C 54% 30.18 in
(1022 mb)
Calm - 10SM
17:35
Clear
48°F / 9°C 32°F / 0°C 54% 30.18 in
(1022 mb)
Calm - 10SM
17:15
Clear
48°F / 9°C 32°F / 0°C 54% 30.18 in
(1022 mb)
Calm - 10SM
16:56
Clear
50°F / 10°C 32°F / 0°C 50% 30.18 in
(1022 mb)
Calm - 10SM
16:35
Clear
50°F / 10°C 34°F / 1°C 54% 30.18 in
(1022 mb)
NW 4.6 mph
(NW 7 kph)
- 10SM
16:15
Clear
50°F / 10°C 34°F / 1°C 54% 30.18 in
(1022 mb)
NNW 4.6 mph
(NNW 7 kph)
- 10SM
15:56
Clear
52°F / 11°C 36°F / 2°C 54% 30.18 in
(1022 mb)
N 3.5 mph
(N 6 kph)
- 10SM
15:35
Clear
52°F / 11°C 34°F / 1°C 50% 30.18 in
(1022 mb)
NNW 5.8 mph
(NNW 9 kph)
- 10SM
15:15
Clear
52°F / 11°C 34°F / 1°C 50% 30.18 in
(1022 mb)
NW 3.5 mph
(NW 6 kph)
- 10SM
14:56
Clear
52°F / 11°C 36°F / 2°C 54% 30.18 in
(1022 mb)
NE 4.6 mph
(NE 7 kph)
- 10SM
14:35
Clear
52°F / 11°C 36°F / 2°C 54% 30.18 in
(1022 mb)
WNW 5.8 mph
(WNW 9 kph)
- 10SM
14:15
Clear
50°F / 10°C 34°F / 1°C 54% 30.18 in
(1022 mb)
Calm - 10SM
13:55
Clear
50°F / 10°C 34°F / 1°C 54% 30.18 in
(1022 mb)
Calm - 10SM
13:35
Clear
50°F / 10°C 36°F / 2°C 58% 30.18 in
(1022 mb)
N 6.9 mph
(N 11 kph)
- 10SM
13:15
Clear
48°F / 9°C 36°F / 2°C 62% 30.18 in
(1022 mb)
Calm - 10SM
12:55
Clear
48°F / 9°C 36°F / 2°C 62% 30.18 in
(1022 mb)
NNW 9.2 mph
(NNW 15 kph)
- 10SM
12:35
Clear
48°F / 9°C 37°F / 3°C 66% 30.21 in
(1023 mb)
N 10.4 mph
(N 17 kph)
- 10SM
12:15
Clear
46°F / 8°C 36°F / 2°C 66% 30.21 in
(1023 mb)
NNE 4.6 mph
(NNE 7 kph)
- 10SM
11:55
Partly Cloudy
45°F / 7°C 36°F / 2°C 71% 30.21 in
(1023 mb)
NNW 3.5 mph
(NNW 6 kph)
- 10SM
11:35
Overcast
45°F / 7°C 36°F / 2°C 71% 30.21 in
(1023 mb)
N 5.8 mph
(N 9 kph)
- 10SM
11:15
Overcast
45°F / 7°C 37°F / 3°C 76% 30.21 in
(1023 mb)
NNW 8.1 mph
(NNW 13 kph)
- 10SM
10:55
Overcast
43°F / 6°C 36°F / 2°C 76% 30.21 in
(1023 mb)
N 4.6 mph
(N 7 kph)
- 10SM
10:35
Overcast
43°F / 6°C 36°F / 2°C 76% 30.21 in
(1023 mb)
N 9.2 mph
(N 15 kph)
- 10SM
10:16
Overcast
43°F / 6°C 36°F / 2°C 76% 30.21 in
(1023 mb)
N 10.4 mph
(N 17 kph)
- 10SM
09:55
Overcast
43°F / 6°C 36°F / 2°C 76% 30.21 in
(1023 mb)
N 8.1 mph
(N 13 kph)
- 10SM
09:35
Overcast
43°F / 6°C 36°F / 2°C 76% 30.21 in
(1023 mb)
N 11.5 mph
(N 19 kph)
- 10SM
09:16
Overcast
43°F / 6°C 36°F / 2°C 76% 30.21 in
(1023 mb)
N 11.5 mph
(N 19 kph)
- 10SM
08:55
Overcast
43°F / 6°C 36°F / 2°C 76% 30.18 in
(1022 mb)
N 10.4 mph
(N 17 kph)
- 10SM
08:35
Overcast
43°F / 6°C 36°F / 2°C 76% 30.18 in
(1022 mb)
N 12.7 mph
(N 20 kph)
- 10SM
08:16
Overcast
43°F / 6°C 36°F / 2°C 76% 30.18 in
(1022 mb)
N 12.7 mph
(N 20 kph)
- 10SM
07:55
Overcast
43°F / 6°C 36°F / 2°C 76% 30.18 in
(1022 mb)
N 10.4 mph
(N 17 kph)
- 10SM
07:35
Overcast
43°F / 6°C 36°F / 2°C 76% 30.15 in
(1021 mb)
N 13.8 mph
(N 22 kph)
- 10SM
07:16
Overcast
43°F / 6°C 37°F / 3°C 81% 30.15 in
(1021 mb)
N 11.5 mph
(N 19 kph)
- 10SM
06:55
Overcast
43°F / 6°C 37°F / 3°C 81% 30.15 in
(1021 mb)
N 9.2 mph
(N 15 kph)
- 10SM
06:35
Overcast
43°F / 6°C 37°F / 3°C 81% 30.12 in
(1020 mb)
N 11.5 mph
(N 19 kph)
- 10SM
06:16
Overcast
43°F / 6°C 37°F / 3°C 81% 30.12 in
(1020 mb)
N 11.5 mph
(N 19 kph)
- 10SM
05:55
Overcast
43°F / 6°C 37°F / 3°C 81% 30.12 in
(1020 mb)
N 11.5 mph
(N 19 kph)
- 10SM
05:36
Overcast
45°F / 7°C 37°F / 3°C 76% 30.12 in
(1020 mb)
N 12.7 mph
(N 20 kph)
- 10SM
05:15
Overcast
45°F / 7°C 37°F / 3°C 76% 30.09 in
(1019 mb)
N 8.1 mph
(N 13 kph)
- 10SM
04:55
Overcast
45°F / 7°C 37°F / 3°C 76% 30.09 in
(1019 mb)
N 9.2 mph
(N 15 kph)
- 10SM
04:36
Overcast
45°F / 7°C 37°F / 3°C 76% 30.09 in
(1019 mb)
N 13.8 mph
(N 22 kph)
- 10SM
04:15
Overcast
45°F / 7°C 39°F / 4°C 81% 30.09 in
(1019 mb)
N 12.7 mph
(N 20 kph)
- 10SM
03:55
Overcast
46°F / 8°C 39°F / 4°C 76% 30.06 in
(1018 mb)
N 9.2 mph
(N 15 kph)
- 10SM
03:36
Overcast
45°F / 7°C 41°F / 5°C 87% 30.06 in
(1018 mb)
N 8.1 mph
(N 13 kph)
- 10SM
03:15
Overcast
45°F / 7°C 41°F / 5°C 87% 30.06 in
(1018 mb)
NNW 5.8 mph
(NNW 9 kph)
- 10SM
02:55
Overcast
45°F / 7°C 41°F / 5°C 87% 30.06 in
(1018 mb)
NNW 9.2 mph
(NNW 15 kph)
- 10SM
02:36
Overcast
45°F / 7°C 41°F / 5°C 87% 30.06 in
(1018 mb)
NW 10.4 mph
(NW 17 kph)
- 10SM
02:15
Overcast
45°F / 7°C 41°F / 5°C 87% 30.06 in
(1018 mb)
NW 11.5 mph
(NW 19 kph)
- 10SM
01:55
Overcast
45°F / 7°C 41°F / 5°C 87% 30.06 in
(1018 mb)
NW 11.5 mph
(NW 19 kph)
- 10SM
01:36
Overcast
45°F / 7°C 41°F / 5°C 87% 30.04 in
(1017 mb)
NW 10.4 mph
(NW 17 kph)
- 10SM
01:15
Overcast
45°F / 7°C 41°F / 5°C 87% 30.04 in
(1017 mb)
NW 11.5 mph
(NW 19 kph)
- 10SM
00:55
Overcast
45°F / 7°C 41°F / 5°C 87% 30.04 in
(1017 mb)
NW 10.4 mph
(NW 17 kph)
- 10SM
00:35
Overcast
45°F / 7°C 41°F / 5°C 87% 30.04 in
(1017 mb)
NW 10.4 mph
(NW 17 kph)
- 10SM
00:15
Overcast
45°F / 7°C 41°F / 5°C 87% 30.04 in
(1017 mb)
NW 11.5 mph
(NW 19 kph)
- 10SM
Time Weather Temperature Dewpoint Humidity Pressure Winds Precip Visibility


Weather for websites

WeatherForYou.com, LLC is not responsible for any damages or problems caused by this service. Current weather conditions are obtained from the closest station including government and personal stations which may have varying degrees of accuracy. Weather forecasts are derived from the NOAA NDFD. Like all things, this site belongs to Jesus Christ... He just trusts me to maintain it. If you have any questions or comments email webmaster@weatherforyou.com

Copyright © 2014, WeatherForYou.com LLC. All rights reserved.